Savannah Hunter, GA

6:58 AM EDT on July 24, 2017 (GMT -0400)
Hunter Army Air Field

Weather History for KSVN - September, 2012

Change the Weather History Date:

Saturday, September 15, 2012

  Actual Average Record
Temperature  
Mean Temperature 77 °F -  
Max Temperature 86 °F 83 °F 96 °F (2011)
Min Temperature 69 °F 67 °F 59 °F (1996)
Cooling Degree Days 12    
Growing Degree Days 27 (Base 50)    
Moisture  
Dew Point 68 °F    
Average Humidity 84    
Maximum Humidity 100    
Minimum Humidity 47    
Precipitation  
Precipitation 0.00 in - - ()
Sea Level Pressure  
Sea Level Pressure 30.10 in    
Wind  
Wind Speed 1 mph (East)    
Max Wind Speed 10 mph    
Max Gust Speed -    
Visibility 8 miles    
Events      
Averages and records for this station are not official NWS values.
T = Trace of Precipitation, MM = Missing Value Source: NWS Daily Summary

Daily Weather History Graph

Daily Weather History Graph

Search for Another Location

Airport or City:

Trip Planner

Search our weather history database for the weather conditions in past years. The results will help you decide how hot, cold, wet, or windy it might be!

Date:

Astronomy

Sep. 15, 2012 Rise Set
Actual Time 7:08 AM EDT 7:29 PM EDT
Civil Twilight 6:44 AM EDT 7:54 PM EDT
Nautical Twilight 6:15 AM EDT 8:22 PM EDT
Astronomical Twilight 5:46 AM EDT 8:51 PM EDT
Moon 6:36 AM EDT (9/15) 7:02 PM EDT (9/15)
Length of Visible Light 13h 10m
Length of Day
12h 21m
Waning Crescent, 0% of the Moon is Illuminated
Sep 15
Waning Crescent
Sep 15
New
Sep 22
First Quarter
Sep 29
Full
Oct 8
Last Quarter

Hourly Weather History & Observations

Time (EDT) Temp. Heat Index Dew Point Humidity Pressure Visibility Wind Dir Wind Speed Gust Speed Precip Events Conditions
12:55 AM 71.6 °F - 69.8 °F 94% 30.12 in 9.0 mi Calm Calm - N/A   Clear
1:29 AM 71.6 °F - 69.8 °F 94% 30.12 in 4.0 mi Calm Calm - N/A   Clear
1:35 AM 71.6 °F - 69.8 °F 94% 30.12 in 2.0 mi Calm Calm - N/A   Clear
1:42 AM 69.8 °F - 69.8 °F 100% 30.11 in 2.0 mi Calm Calm - N/A   Clear
1:44 AM 69.8 °F - 69.8 °F 100% 30.11 in 3.0 mi Calm Calm - N/A   Clear
1:55 AM 69.8 °F - 68.5 °F 96% 30.12 in 9.0 mi Calm Calm - N/A   Clear
2:20 AM 69.8 °F - 68.0 °F 94% 30.11 in 4.0 mi Calm Calm - N/A   Clear
2:45 AM 69.8 °F - 68.0 °F 94% 30.11 in 7.0 mi Calm Calm - N/A   Clear
2:55 AM 69.1 °F - 68.0 °F 96% 30.10 in 5.0 mi Calm Calm - N/A   Clear
3:11 AM 71.6 °F - 69.8 °F 94% 30.10 in 5.0 mi Calm Calm - N/A   Clear
3:55 AM 70.3 °F - 69.3 °F 96% 30.09 in 10.0 mi Calm Calm - N/A   Clear
4:07 AM 69.8 °F - 69.8 °F 100% 30.09 in 7.0 mi Calm Calm - N/A   Clear
4:28 AM 69.8 °F - 69.8 °F 100% 30.10 in 6.0 mi Calm Calm - N/A   Clear
4:40 AM 69.8 °F - 68.0 °F 94% 30.10 in 7.0 mi Calm Calm - N/A   Clear
4:41 AM 69.8 °F - 68.0 °F 94% 30.10 in 7.0 mi Calm Calm - N/A   Clear
4:55 AM 69.1 °F - 68.2 °F 97% 30.09 in 7.0 mi Calm Calm - N/A   Clear
4:59 AM 69.8 °F - 68.0 °F 94% 30.09 in 6.0 mi Calm Calm - N/A   Clear
5:02 AM 69.8 °F - 68.0 °F 94% 30.09 in 6.0 mi Calm Calm - N/A   Clear
5:55 AM 70.3 °F - 69.1 °F 96% 30.10 in 10.0 mi Calm Calm - N/A   Clear
6:55 AM 69.4 °F - 68.0 °F 95% 30.12 in 10.0 mi Calm Calm - N/A   Clear
7:55 AM 70.2 °F - 67.8 °F 92% 30.14 in 10.0 mi Calm Calm - N/A   Clear
8:55 AM 73.6 °F - 68.7 °F 85% 30.15 in 10.0 mi Calm Calm - N/A   Clear
9:55 AM 77.5 °F - 67.3 °F 71% 30.15 in 10.0 mi NE 4.6 mph - N/A   Clear
10:55 AM 80.6 °F 82.9 °F 67.1 °F 63% 30.15 in 10.0 mi ENE 5.8 mph - N/A   Clear
11:55 AM 82.0 °F 83.6 °F 64.6 °F 55% 30.14 in 10.0 mi Variable 6.9 mph - N/A   Partly Cloudy
12:55 PM 83.1 °F 84.4 °F 63.9 °F 52% 30.12 in 10.0 mi NNE 5.8 mph - N/A   Clear
1:55 PM 85.5 °F 86.3 °F 63.3 °F 47% 30.10 in 10.0 mi East 8.1 mph - N/A   Clear
2:55 PM 85.6 °F 87.9 °F 66.2 °F 52% 30.09 in 10.0 mi Variable 4.6 mph - N/A   Clear
3:55 PM 84.4 °F 86.3 °F 65.5 °F 53% 30.08 in 10.0 mi East 5.8 mph - N/A   Mostly Cloudy
4:55 PM 83.3 °F 86.4 °F 68.2 °F 60% 30.07 in 10.0 mi East 10.4 mph - N/A   Partly Cloudy
5:55 PM 81.9 °F 85.0 °F 68.7 °F 64% 30.07 in 10.0 mi ESE 9.2 mph - N/A   Clear
6:55 PM 79.0 °F - 68.7 °F 71% 30.07 in 10.0 mi ESE 6.9 mph - N/A   Clear
7:55 PM 76.1 °F - 69.4 °F 80% 30.07 in 10.0 mi ESE 3.5 mph - N/A   Clear
8:55 PM 74.7 °F - 68.9 °F 82% 30.08 in 10.0 mi Calm Calm - N/A   Clear
9:55 PM 73.6 °F - 68.9 °F 85% 30.09 in 10.0 mi Calm Calm - N/A   Clear
10:55 PM 71.4 °F - 68.4 °F 90% 30.10 in 10.0 mi Calm Calm - N/A   Clear
11:55 PM 70.7 °F - 68.9 °F 94% 30.10 in 10.0 mi Calm Calm - N/A   Clear